Location: Okie-Tex Star Party
(36.8978°N, 102.9520°W)
Time: 05:33:31
(UTC-05:00)

Oscar 16 - Visible Passes

Search period start: 28 June 2017 00:00
Search period end: 08 July 2017 00:00
Orbit: 774 x 791 km, 98.6° (Epoch: 27 June)

Date Brightness Start Highest point End Pass type
(mag) Time Alt. Az. Time Alt. Az. Time Alt. Az.
28 Jun 10.5 03:39:55 10° NNE 03:45:04 89° E 03:45:44 69° S visible
28 Jun 12.9 05:23:02 10° NW 05:23:36 10° WNW 05:24:11 10° WNW visible
29 Jun 11.3 03:08:30 10° NNE 03:13:23 43° E 03:13:40 42° ESE visible
29 Jun 12.2 04:48:38 10° NNW 04:52:22 21° WNW 04:54:14 17° W visible
30 Jun 12.4 02:37:43 10° NE 02:41:33 21° E 02:41:36 21° E visible
30 Jun 11.3 04:16:12 10° N 04:20:58 40° WNW 04:22:10 35° WSW visible
01 Jul 10.5 03:44:18 10° NNE 03:49:26 83° WNW 03:50:06 68° SSW visible
02 Jul 11.2 03:12:49 10° NNE 03:17:46 47° E 03:18:02 47° ESE visible
02 Jul 12.3 04:53:10 10° NNW 04:56:42 19° WNW 04:58:36 16° W visible
03 Jul 12.3 02:41:55 10° NE 02:45:56 23° E 02:45:57 23° E visible
03 Jul 11.4 04:20:39 10° N 04:25:19 37° WNW 04:26:32 32° W visible
04 Jul 13.1 02:12:58 10° ENE 02:13:53 11° E 02:13:53 11° E visible
04 Jul 10.5 03:48:40 10° N 03:53:48 76° WNW 03:54:27 65° SW visible
05 Jul 11.0 03:17:08 10° NNE 03:22:09 52° E 03:22:23 52° ESE visible
05 Jul 12.4 04:57:44 10° NNW 05:01:01 17° WNW 05:02:57 14° W visible
06 Jul 12.2 02:46:08 10° NE 02:50:18 25° E 02:50:18 25° E visible
06 Jul 11.5 04:25:05 10° N 04:29:40 34° WNW 04:30:52 30° W visible
07 Jul 13.0 02:16:30 10° ENE 02:18:13 12° E 02:18:13 12° E visible
07 Jul 10.6 03:53:03 10° N 03:58:10 69° WNW 03:58:47 62° WSW visible
